< < Back
Terminal Aerodrome Forecast


Current Version              Previous Versions:   1  2  3  4  5  6  7  8  9  

Terminal Aerodrome Forecast

640
FTUS42 KJAX 280520
TAFJAX
TAF
KJAX 280520Z 2806/2906 32003KT P6SM SKC
     FM281500 02010KT P6SM SCT045
     FM282300 03003KT P6SM SKC=



Latest METAR

712
SAUS80 KWBC 281400 CCA
MTRJAX
METAR KJAX 281356Z 36010KT 10SM CLR 05/01 A3023 RMK AO2 SLP237
T00500006


USA.gov is the U.S. government's official web portal to all federal, state and local government web resources and services.